This demonstration page uses our WeatherBlox Daily Observations layout. Learn more.

Left ArrowRight Arrow

Hourly Observations for December 30, 2019

Temp ( °F °C ) Dew Point ( °F °C ) Humidity (%) Winds ( mph kmh ) Pressure ( in mb ) Visibility ( mi km ) Precip ( " mm )
12:53 am 00:53 Clear 8 -13.3 5 -15 87 87 W 6 9 30.29 1026 10 16 0.00 0.00
1:53 am 01:53 Clear 6 -14.4 3 -16.1 87 87 WSW 6 9 30.29 1026 10 16 0.00 0.00
2:53 am 02:53 Clear 7 -13.9 4 -15.6 87 87 SW 6 9 30.29 1026 10 16 0.00 0.00
3:53 am 03:53 Clear 9 -12.8 6 -14.4 88 88 W 6 9 30.30 1026 10 16 0.00 0.00
4:53 am 04:53 Clear 10 -12.2 7 -13.9 87 87 W 8 13 30.29 1026 10 16 0.00 0.00
5:53 am 05:53 Clear 10 -12.2 6 -14.4 84 84 WSW 7 11 30.30 1026 10 16 0.00 0.00
6:53 am 06:53 Clear 11 -11.7 7 -13.9 84 84 SW 8 13 30.30 1026 10 16 0.00 0.00
7:53 am 07:53 Clear 10 -12.2 6 -14.4 84 84 WSW 6 9 30.30 1026 10 16 0.00 0.00
8:53 am 08:53 Sunny 12 -11.1 9 -12.8 87 87 SW 9 15 30.30 1026 10 16 0.00 0.00
9:53 am 09:53 Sunny 21 -6.1 17 -8.3 85 85 WSW 14 22 30.29 1026 10 16 0.00 0.00
10:53 am 10:53 Sunny 26 -3.3 20 -6.7 78 78 WSW 16 26 30.27 1025 10 16 0.00 0.00
11:53 am 11:53 Sunny 30 -1.1 22 -5.6 72 72 SW 18 30 30.24 1024 10 16 0.00 0.00
12:53 pm 12:53 Sunny 33 0.6 21 -6.1 61 61 WSW 16 26 30.21 1023 10 16 0.00 0.00
1:53 pm 13:53 Sunny 35 1.7 22 -5.6 59 59 WSW 14 22 30.19 1022 10 16 0.00 0.00
2:53 pm 14:53 Sunny 36 2.2 23 -5 59 59 SW 14 22 30.17 1022 10 16 0.00 0.00
3:53 pm 15:53 Sunny 35 1.7 24 -4.4 64 64 WSW 9 15 30.16 1021 10 16 0.00 0.00
4:53 pm 16:53 Clear 29 -1.7 21 -6.1 72 72 SW 7 11 30.15 1021 10 16 0.00 0.00
5:53 pm 17:53 Clear 28 -2.2 19 -7.2 69 69 Calm 30.13 1020 10 16 0.00 0.00
6:53 pm 18:53 Clear 23 -5 17 -8.3 78 78 WSW 6 9 30.12 1020 10 16 0.00 0.00
7:53 pm 19:53 Clear 28 -2.2 18 -7.8 66 66 SW 17 28 30.08 1019 10 16 0.00 0.00
8:53 pm 20:53 Clear 30 -1.1 19 -7.2 64 64 SW 20 31 30.04 1017 10 16 0.00 0.00
9:53 pm 21:53 Clear 30 -1.1 19 -7.2 64 64 SW 20 31 30.01 1016 10 16 0.00 0.00
10:53 pm 22:53 Clear 30 -1.1 19 -7.2 64 64 SW 21 33 30.01 1016 10 16 0.00 0.00
11:53 pm 23:53 Clear 29 -1.7 19 -7.2 66 66 SW 21 33 29.99 1016 10 16 0.00 0.00

Powered by AerisWeather